Location: Unspecified
(0.0000°N, 0.0000°E)
Time: 02:47:18
(UTC+00:00)

Mayak - Visible Passes

Search period start: 17 April 2024 00:00
Search period end: 27 April 2024 00:00
Orbit: 515 x 528 km, 97.4° (Epoch: 16 April)

Date Brightness Start Highest point End Pass type
(mag) Time Alt. Az. Time Alt. Az. Time Alt. Az.
17 Apr ? 18:36:02 10° NNE 18:39:46 77° E 18:43:32 10° S visible
18 Apr ? 18:22:57 10° NNE 18:26:32 44° E 18:30:08 10° S visible
20 Apr ? 19:31:46 10° NW 19:33:40 14° W 19:35:35 10° WSW visible
21 Apr ? 19:17:13 10° NNW 19:20:09 22° W 19:23:05 10° SW visible
22 Apr ? 19:03:04 10° NNW 19:06:32 35° W 19:09:59 10° SW visible
23 Apr ? 18:49:06 10° N 18:52:48 62° W 18:56:31 10° SSW visible
24 Apr ? 18:35:15 10° NNE 18:38:59 75° E 18:42:44 10° S visible
25 Apr ? 18:21:30 10° NNE 18:25:04 42° E 18:28:38 10° S visible
